Regional Weather Roundup
Issued by NWS

Home | Current Version | Previous Version | Graphics & Text | Print | Product List | Glossary On
Versions: 1 2 3 4 5 6 7 8 9 10 11 12 13 14 15 16 17 18 19 20 21 22 23 24 25 26 27 28 29 30 31 32 33 34 35 36 37 38 39 40 41 42 43 44 45 46 47 48 49 50
000
ASUS44 KMEG 180400
RWRTN
TENNESSEE HOURLY STATE WEATHER ROUNDUP
NATIONAL WEATHER SERVICE MEMPHIS TN
1100 PM CDT WED SEP 17 2014

TNZ002-004-019-021-049-052-054-088>092-180500-
WEST TENNESSEE

CITY           SKY/WX    TMP DP  RH WIND       PRES   REMARKS
MEMPHIS INTL   MOCLDY    69  63  81 E6        29.96R
NWS MEMPHIS      N/A     66 N/A N/A MISG        N/A
JACKSON        CLOUDY    63  61  93 CALM      29.98S
DYERSBURG      CLOUDY    63  52  67 E3        29.98S
UNION CITY     MOCLDY    59  57  94 CALM      29.97S
PARIS          MOCLDY    54  54 100 CALM      29.99S
LEXINGTON      MOCLDY    61  59  94 CALM      29.98S
SAVANNAH       PTCLDY    61  61 100 CALM      29.99S
$$

TNZ008-025-027-028-033-062-065-066-180500-
NORTH MIDDLE TENNESSEE

CITY           SKY/WX    TMP DP  RH WIND       PRES   REMARKS
NASHVILLE      CLOUDY    65  60  84 CALM      29.99R
CLARKSVILLE    MOCLDY    60  56  86 CALM      29.99R
COOKEVILLE     MOCLDY    61  59  94 CALM      29.99S
CROSSVILLE     PTCLDY    59  54  83 CALM      30.01S
$$

TNZ061-075-076-078-094-096-097-180500-
SOUTH MIDDLE TENNESSEE

CITY           SKY/WX    TMP DP  RH WIND       PRES   REMARKS
FAYETTEVILLE   CLEAR     63  57  82 N5        29.99R
TULLAHOMA      CLEAR     59  55  88 CALM      30.00R
WINCHESTER     CLEAR     61  57  88 CALM      29.99S
COLUMBIA       MOCLDY    63  63 100 CALM      29.98R
SHELBYVILLE    PTCLDY    61  59  94 CALM      30.00S
$$

TNZ017-018-042-046-047-180500-
NORTHEAST TENNESSEE

CITY           SKY/WX    TMP DP  RH WIND       PRES   REMARKS
TRI CITIES     CLEAR     56  53  90 N3        29.99F
ELIZABETHTON   CLEAR     54  52  94 CALM      30.00F
$$

TNZ012-013-036-069-073-074-180500-
CENTRAL EAST TENNESSEE

CITY           SKY/WX    TMP DP  RH WIND       PRES   REMARKS
KNOXVILLE      PTCLDY    62  57  83 NW3       29.95F
OAK RIDGE      PTCLDY    61  57  87 CALM      29.98R
GATLINBURG     CLEAR     57  55  94 CALM      29.96S
$$

TNZ083-085-099-180500-
SOUTHEAST TENNESSEE

CITY           SKY/WX    TMP DP  RH WIND       PRES   REMARKS
CHATTANOOGA    CLOUDY    68  56  65 CALM      29.97S
$$

SKY/WX REPORTED AS FAIR MEANS FEW OR NO CLOUDS BELOW
12 THOUSAND FEET.



USA.gov is the U.S. government's official web portal to all federal, state and local government web resources and services.